Date String (YYYY-MM-DD hh:mm:ss) UTC,Instrument flags,Ambient pressure (hPa),Sample flow (lpm),Bypass flow (lpm),Sample temperature (°C),Ambient temperature (°C),ASC tube jacket temperature (°C),LED temperature (°C),Box temperature (°C),Sample RH (%),Span deviation,Mass concentration (μg/m³),Mass concentration (μg/m³),Mass concentration (μg/m³)
DateTimeUTC,F1_M11,P_M11,Q1_M11,Q2_M11,T1_M11,T2_M11,T3_M11,T4_M11,T5_M11,U1_M11,ZSPAN_M11,X2_M11,X0_M11,X1_M11
2022-09-22 03:00:00,,0833.5,5.01,0.00,29.6,27.8,00.0,38.4,31.3,26.6,-000.8,0006.25,0009.09,0005.98
2022-09-22 03:01:00,,0833.5,5.00,0.00,29.5,27.7,00.0,38.4,31.3,26.7,-001.2,0006.24,0009.09,0005.98
2022-09-22 03:02:00,,0833.6,5.00,0.00,29.5,27.7,00.0,38.3,31.3,26.7,-001.6,0006.23,0009.02,0005.96
2022-09-22 03:03:00,,0833.5,5.01,0.00,29.5,27.8,00.0,38.3,31.3,26.8,-001.6,0006.24,0009.07,0005.96
2022-09-22 03:04:00,,0833.4,4.99,0.00,29.5,27.9,00.0,38.3,31.3,26.8,-001.4,0006.22,0009.01,0005.95
2022-09-22 03:05:00,,0833.5,5.02,0.00,29.5,27.9,00.0,38.3,31.3,26.8,-001.6,0006.21,0008.99,0005.95
2022-09-22 03:06:00,,0833.5,4.99,0.00,29.5,27.8,00.0,38.3,31.3,26.7,-001.8,0006.22,0008.99,0005.96
2022-09-22 03:07:00,,0833.5,5.01,0.00,29.5,27.8,00.0,38.3,31.3,26.7,-001.9,0006.22,0008.90,0005.97
2022-09-22 03:08:00,,0833.5,4.99,0.00,29.5,27.8,00.0,38.3,31.3,26.6,-001.5,0006.23,0008.65,0005.98
2022-09-22 03:09:00,,0833.6,5.01,0.00,29.5,27.8,00.0,38.3,31.3,26.6,-000.6,0006.23,0008.63,0006.01
2022-09-22 03:10:00,,0833.6,4.99,0.00,29.5,27.8,00.0,38.3,31.3,26.6,0000.0,0006.25,0008.62,0006.05
2022-09-22 03:11:00,,0833.6,5.01,0.00,29.5,27.8,00.0,38.3,31.3,26.6,0000.0,0006.29,0008.65,0006.08
2022-09-22 03:12:00,,0833.6,4.98,0.00,29.5,27.9,00.0,38.3,31.3,26.5,0000.0,0006.32,0008.70,0006.10
2022-09-22 03:13:00,,0833.6,5.01,0.00,29.5,27.9,00.0,38.3,31.4,26.5,0000.0,0006.37,0008.80,0006.12
2022-09-22 03:14:00,,0833.6,4.99,0.00,29.5,27.9,00.0,38.3,31.3,26.5,0000.0,0006.39,0008.77,0006.14
2022-09-22 03:15:00,,0833.6,5.01,0.00,29.5,27.9,00.0,38.3,31.3,26.5,0000.0,0006.40,0008.74,0006.15
2022-09-22 03:16:00,,0833.6,4.99,0.00,29.5,27.9,00.0,38.3,31.3,26.5,0000.0,0006.43,0008.78,0006.18
2022-09-22 03:17:00,,0833.6,5.01,0.00,29.5,27.9,00.0,38.3,31.3,26.5,0000.0,0006.43,0008.79,0006.19
2022-09-22 03:18:00,,0833.6,4.99,0.00,29.5,27.8,00.0,38.3,31.3,26.4,0000.0,0006.43,0008.79,0006.20
2022-09-22 03:19:00,,0833.6,5.01,0.00,29.5,27.8,00.0,38.3,31.3,26.4,0000.0,0006.45,0008.85,0006.21
2022-09-22 03:20:00,,0833.6,4.99,0.00,29.5,27.7,00.0,38.3,31.3,26.4,0000.0,0006.46,0008.82,0006.22
2022-09-22 03:21:00,,0833.6,5.01,0.00,29.5,27.7,00.0,38.3,31.3,26.5,-000.3,0006.47,0008.87,0006.23
2022-09-22 03:22:00,,0833.6,4.99,0.00,29.5,27.7,00.0,38.3,31.3,26.6,-001.0,0006.47,0008.85,0006.24
2022-09-22 03:23:00,,0833.6,5.01,0.00,29.5,27.8,00.0,38.3,31.3,27.7,-000.9,0006.48,0008.89,0006.23
2022-09-22 03:24:00,,0833.6,4.98,0.00,29.5,27.8,00.0,38.3,31.3,27.2,-000.7,0006.46,0008.79,0006.24
2022-09-22 03:25:00,,0833.6,5.01,0.00,29.5,27.9,00.0,38.2,31.3,26.8,-000.3,0006.45,0008.78,0006.23
2022-09-22 03:26:00,,0833.6,4.99,0.00,29.5,27.9,00.0,38.3,31.3,26.6,-000.8,0006.43,0008.81,0006.19
2022-09-22 03:27:00,,0833.6,5.01,0.00,29.5,27.8,00.0,38.2,31.3,26.6,-001.0,0006.41,0008.80,0006.17
2022-09-22 03:28:00,,0833.6,4.99,0.00,29.5,27.8,00.0,38.2,31.3,26.5,-000.4,0006.39,0008.77,0006.15
2022-09-22 03:29:00,,0833.6,5.01,0.00,29.5,27.8,00.0,38.2,31.3,26.5,-000.2,0006.38,0008.72,0006.14
2022-09-22 03:30:00,,0833.6,4.99,0.00,29.5,27.8,00.0,38.2,31.3,26.5,-000.0,0006.35,0008.63,0006.12
2022-09-22 03:31:00,,0833.6,5.01,0.00,29.5,27.8,00.0,38.2,31.3,26.5,0000.1,0006.34,0008.63,0006.10
2022-09-22 03:32:00,,0833.7,4.99,0.00,29.5,27.8,00.0,38.2,31.3,26.5,-000.1,0006.34,0008.61,0006.09
2022-09-22 03:33:00,,0833.6,5.00,0.00,29.5,27.8,00.0,38.2,31.3,26.4,-000.0,0006.36,0008.67,0006.09
2022-09-22 03:34:00,,0833.6,5.00,0.00,29.5,27.9,00.0,38.2,31.3,26.4,0000.0,0006.36,0008.65,0006.10
2022-09-22 03:35:00,,0833.6,4.99,0.00,29.5,27.9,00.0,38.2,31.3,26.3,-000.6,0006.38,0008.67,0006.11
2022-09-22 03:36:00,,0833.6,5.01,0.00,29.5,27.9,00.0,38.2,31.3,26.3,-000.2,0006.38,0008.70,0006.13
2022-09-22 03:37:00,,0833.7,4.98,0.00,29.5,27.9,00.0,38.2,31.3,26.3,-000.1,0006.39,0008.71,0006.14
2022-09-22 03:38:00,,0833.6,4.99,0.00,29.5,27.9,00.0,38.2,31.3,26.4,0000.2,0006.43,0008.73,0006.17
2022-09-22 03:39:00,,0833.7,5.00,0.00,29.5,27.9,00.0,38.2,31.3,26.4,-000.2,0006.47,0008.79,0006.20
2022-09-22 03:40:00,,0833.7,5.00,0.00,29.5,27.9,00.0,38.2,31.3,26.4,-000.6,0006.51,0008.88,0006.21
2022-09-22 03:41:00,,0833.7,5.01,0.00,29.5,28.0,00.0,38.2,31.3,26.4,-000.8,0006.54,0008.94,0006.23
2022-09-22 03:42:00,,0833.7,4.99,0.00,29.5,28.0,00.0,38.2,31.4,26.4,-001.1,0006.57,0009.02,0006.25
2022-09-22 03:43:00,,0833.7,5.00,0.00,29.5,28.0,00.0,38.2,31.4,26.5,-001.0,0006.60,0009.06,0006.27
2022-09-22 03:44:00,,0833.7,5.00,0.00,29.5,28.0,00.0,38.2,31.4,26.4,-001.2,0006.59,0009.07,0006.29
2022-09-22 03:45:00,,0833.6,4.99,0.00,29.5,28.0,00.0,38.2,31.4,26.4,-001.5,0006.58,0009.02,0006.28
2022-09-22 03:46:00,,0833.6,5.00,0.00,29.5,28.0,00.0,38.2,31.4,26.3,-001.6,0006.57,0009.01,0006.28
2022-09-22 03:47:00,,0833.6,5.00,0.00,29.5,28.0,00.0,38.2,31.4,26.3,-001.9,0006.58,0009.00,0006.28
2022-09-22 03:48:00,,0833.7,4.99,0.00,29.5,28.0,00.0,38.3,31.4,26.3,-002.1,0006.57,0008.93,0006.28
2022-09-22 03:49:00,,0833.6,5.01,0.00,29.5,28.0,00.0,38.3,31.4,26.3,-002.2,0006.56,0008.92,0006.27
2022-09-22 03:50:00,,0833.6,4.99,0.00,29.5,28.0,00.0,38.3,31.4,26.3,-001.9,0006.51,0008.81,0006.25
2022-09-22 03:51:00,,0833.6,5.01,0.00,29.5,28.0,00.0,38.3,31.4,26.3,-000.6,0006.47,0008.72,0006.22
2022-09-22 03:52:00,,0833.6,5.00,0.00,29.5,28.0,00.0,38.3,31.4,26.2,0000.0,0006.45,0008.65,0006.22
2022-09-22 03:53:00,,0833.6,5.00,0.00,29.5,28.0,00.0,38.3,31.4,26.2,0000.0,0006.41,0008.57,0006.19
2022-09-22 03:54:00,,0833.6,5.00,0.00,29.5,28.0,00.0,38.3,31.4,26.1,0000.0,0006.35,0008.53,0006.13
2022-09-22 03:55:00,,0833.6,5.00,0.00,29.5,28.0,00.0,38.3,31.4,26.2,0000.0,0006.31,0008.45,0006.10
2022-09-22 03:56:00,,0833.6,5.01,0.00,29.6,28.0,00.0,38.3,31.4,26.2,0000.0,0006.29,0008.44,0006.07
2022-09-22 03:57:00,,0833.6,4.99,0.00,29.6,28.0,00.0,38.3,31.4,26.3,0000.0,0006.26,0008.42,0006.05
2022-09-22 03:58:00,,0833.6,5.00,0.00,29.5,28.1,00.0,38.3,31.4,26.2,0000.0,0006.21,0008.36,0006.02
2022-09-22 03:59:00,,0833.5,5.02,0.00,29.6,28.1,00.0,38.3,31.4,26.2,0000.0,0006.18,0008.33,0006.00
